owner,sensor,date,latitude,longitude,sea_surface_height_above_sea_level,qcFlag 
TCOON,ioos:station:TCOON:003:1,2014-02-01T00:06:00Z,26.8015,-97.4706,1.168,1111122 
TCOON,ioos:station:TCOON:003:1,2014-02-01T00:36:00Z,26.8015,-97.4706,1.16,1111122 
TCOON,ioos:station:TCOON:003:1,2014-02-01T01:06:00Z,26.8015,-97.4706,1.146,1111122 
TCOON,ioos:station:TCOON:003:1,2014-02-01T01:36:00Z,26.8015,-97.4706,1.14,1111122 
TCOON,ioos:station:TCOON:003:1,2014-02-01T02:06:00Z,26.8015,-97.4706,1.129,1111122 
TCOON,ioos:station:TCOON:003:1,2014-02-01T02:36:00Z,26.8015,-97.4706,1.116,1111122 
TCOON,ioos:station:TCOON:003:1,2014-02-01T03:06:00Z,26.8015,-97.4706,1.108,1111122 
TCOON,ioos:station:TCOON:003:1,2014-02-01T03:36:00Z,26.8015,-97.4706,1.105,1111122 
TCOON,ioos:station:TCOON:003:1,2014-02-01T04:06:00Z,26.8015,-97.4706,1.106,1111122 
TCOON,ioos:station:TCOON:003:1,2014-02-01T04:36:00Z,26.8015,-97.4706,1.107,1111122 
TCOON,ioos:station:TCOON:003:1,2014-02-01T05:06:00Z,26.8015,-97.4706,1.115,1111122 
TCOON,ioos:station:TCOON:003:1,2014-02-01T05:54:00Z,26.8015,-97.4706,1.13,1111122 
TCOON,ioos:station:TCOON:003:1,2014-02-01T06:36:00Z,26.8015,-97.4706,1.132,1111122 
TCOON,ioos:station:TCOON:003:1,2014-02-01T07:06:00Z,26.8015,-97.4706,1.129,1111122 
TCOON,ioos:station:TCOON:003:1,2014-02-01T07:36:00Z,26.8015,-97.4706,1.128,1111122 
TCOON,ioos:station:TCOON:003:1,2014-02-01T08:06:00Z,26.8015,-97.4706,1.13,1111122 
TCOON,ioos:station:TCOON:003:1,2014-02-01T08:36:00Z,26.8015,-97.4706,1.131,1111122 
TCOON,ioos:station:TCOON:003:1,2014-02-01T09:06:00Z,26.8015,-97.4706,1.134,1111122 
TCOON,ioos:station:TCOON:003:1,2014-02-01T09:36:00Z,26.8015,-97.4706,1.134,1111122 
TCOON,ioos:station:TCOON:003:1,2014-02-01T10:06:00Z,26.8015,-97.4706,1.139,1111122 
TCOON,ioos:station:TCOON:003:1,2014-02-01T10:36:00Z,26.8015,-97.4706,1.142,1111122 
TCOON,ioos:station:TCOON:003:1,2014-02-01T11:06:00Z,26.8015,-97.4706,1.15,1111122 
TCOON,ioos:station:TCOON:003:1,2014-02-01T11:36:00Z,26.8015,-97.4706,1.158,1111122 
TCOON,ioos:station:TCOON:003:1,2014-02-01T12:06:00Z,26.8015,-97.4706,1.162,1111122 
TCOON,ioos:station:TCOON:003:1,2014-02-01T12:42:00Z,26.8015,-97.4706,1.163,1111122 
TCOON,ioos:station:TCOON:003:1,2014-02-01T13:06:00Z,26.8015,-97.4706,1.162,1111122 
TCOON,ioos:station:TCOON:003:1,2014-02-01T13:36:00Z,26.8015,-97.4706,1.165,1111122 
TCOON,ioos:station:TCOON:003:1,2014-02-01T14:06:00Z,26.8015,-97.4706,1.169,1111122 
TCOON,ioos:station:TCOON:003:1,2014-02-01T14:36:00Z,26.8015,-97.4706,1.168,1111122 
TCOON,ioos:station:TCOON:003:1,2014-02-01T15:06:00Z,26.8015,-97.4706,1.167,1111122 
TCOON,ioos:station:TCOON:003:1,2014-02-01T15:30:00Z,26.8015,-97.4706,1.163,1111122 
TCOON,ioos:station:TCOON:003:1,2014-02-01T16:06:00Z,26.8015,-97.4706,1.163,1111122 
TCOON,ioos:station:TCOON:003:1,2014-02-01T16:36:00Z,26.8015,-97.4706,1.174,1111122 
TCOON,ioos:station:TCOON:003:1,2014-02-01T17:06:00Z,26.8015,-97.4706,1.187,1111122 
TCOON,ioos:station:TCOON:003:1,2014-02-01T17:30:00Z,26.8015,-97.4706,1.198,1111122 
TCOON,ioos:station:TCOON:003:1,2014-02-01T18:00:00Z,26.8015,-97.4706,1.215,1111122 
TCOON,ioos:station:TCOON:003:1,2014-02-01T18:36:00Z,26.8015,-97.4706,1.226,1111122 
TCOON,ioos:station:TCOON:003:1,2014-02-01T19:06:00Z,26.8015,-97.4706,1.225,1111122 
TCOON,ioos:station:TCOON:003:1,2014-02-01T19:36:00Z,26.8015,-97.4706,1.226,1111122 
TCOON,ioos:station:TCOON:003:1,2014-02-01T20:06:00Z,26.8015,-97.4706,1.226,1111122 
TCOON,ioos:station:TCOON:003:1,2014-02-01T20:36:00Z,26.8015,-97.4706,1.224,1111122 
TCOON,ioos:station:TCOON:003:1,2014-02-01T21:06:00Z,26.8015,-97.4706,1.22,1111122 
TCOON,ioos:station:TCOON:003:1,2014-02-01T21:36:00Z,26.8015,-97.4706,1.223,1111122 
TCOON,ioos:station:TCOON:003:1,2014-02-01T22:00:00Z,26.8015,-97.4706,1.226,1111122 
TCOON,ioos:station:TCOON:003:1,2014-02-01T22:36:00Z,26.8015,-97.4706,1.23,1111122 
TCOON,ioos:station:TCOON:003:1,2014-02-01T23:06:00Z,26.8015,-97.4706,1.234,1111122 
TCOON,ioos:station:TCOON:003:1,2014-02-01T23:36:00Z,26.8015,-97.4706,1.24,1111122 
TCOON,ioos:station:TCOON:003:1,2014-02-02T00:06:00Z,26.8015,-97.4706,1.238,1111122 
TCOON,ioos:station:TCOON:003:1,2014-02-02T00:36:00Z,26.8015,-97.4706,1.236,1111122 
TCOON,ioos:station:TCOON:003:1,2014-02-02T01:00:00Z,26.8015,-97.4706,1.231,1111122 
TCOON,ioos:station:TCOON:003:1,2014-02-02T01:36:00Z,26.8015,-97.4706,1.242,1111122 
TCOON,ioos:station:TCOON:003:1,2014-02-02T02:06:00Z,26.8015,-97.4706,1.247,1111122 
TCOON,ioos:station:TCOON:003:1,2014-02-02T02:36:00Z,26.8015,-97.4706,1.245,1111122 
TCOON,ioos:station:TCOON:003:1,2014-02-02T03:06:00Z,26.8015,-97.4706,1.246,1111122 
TCOON,ioos:station:TCOON:003:1,2014-02-02T03:36:00Z,26.8015,-97.4706,1.26,1111122 
TCOON,ioos:station:TCOON:003:1,2014-02-02T04:06:00Z,26.8015,-97.4706,1.254,1111122 
TCOON,ioos:station:TCOON:003:1,2014-02-02T04:36:00Z,26.8015,-97.4706,1.236,1111122 
TCOON,ioos:station:TCOON:003:1,2014-02-02T05:06:00Z,26.8015,-97.4706,1.208,1111122 
TCOON,ioos:station:TCOON:003:1,2014-02-02T05:36:00Z,26.8015,-97.4706,1.186,1111122 
TCOON,ioos:station:TCOON:003:1,2014-02-02T06:06:00Z,26.8015,-97.4706,1.183,1111122 
TCOON,ioos:station:TCOON:003:1,2014-02-02T06:36:00Z,26.8015,-97.4706,1.181,1111122 
TCOON,ioos:station:TCOON:003:1,2014-02-02T07:06:00Z,26.8015,-97.4706,1.18,1111122 
TCOON,ioos:station:TCOON:003:1,2014-02-02T07:36:00Z,26.8015,-97.4706,1.178,1111122 
TCOON,ioos:station:TCOON:003:1,2014-02-02T08:06:00Z,26.8015,-97.4706,1.175,1111122 
TCOON,ioos:station:TCOON:003:1,2014-02-02T08:36:00Z,26.8015,-97.4706,1.174,1111122 
TCOON,ioos:station:TCOON:003:1,2014-02-02T09:06:00Z,26.8015,-97.4706,1.174,1111122 
TCOON,ioos:station:TCOON:003:1,2014-02-02T09:36:00Z,26.8015,-97.4706,1.18,1111122 
TCOON,ioos:station:TCOON:003:1,2014-02-02T10:06:00Z,26.8015,-97.4706,1.185,1111122 
TCOON,ioos:station:TCOON:003:1,2014-02-02T10:36:00Z,26.8015,-97.4706,1.185,1111122 
TCOON,ioos:station:TCOON:003:1,2014-02-02T11:06:00Z,26.8015,-97.4706,1.186,1111122 
TCOON,ioos:station:TCOON:003:1,2014-02-02T11:36:00Z,26.8015,-97.4706,1.184,1111122 
TCOON,ioos:station:TCOON:003:1,2014-02-02T12:06:00Z,26.8015,-97.4706,1.182,1111122 
TCOON,ioos:station:TCOON:003:1,2014-02-02T12:36:00Z,26.8015,-97.4706,1.182,1111122 
TCOON,ioos:station:TCOON:003:1,2014-02-02T13:06:00Z,26.8015,-97.4706,1.189,1111122 
TCOON,ioos:station:TCOON:003:1,2014-02-02T13:36:00Z,26.8015,-97.4706,1.196,1111122 
TCOON,ioos:station:TCOON:003:1,2014-02-02T14:06:00Z,26.8015,-97.4706,1.198,1111122 
TCOON,ioos:station:TCOON:003:1,2014-02-02T14:36:00Z,26.8015,-97.4706,1.201,1111122 
TCOON,ioos:station:TCOON:003:1,2014-02-02T15:06:00Z,26.8015,-97.4706,1.199,1111122 
TCOON,ioos:station:TCOON:003:1,2014-02-02T15:36:00Z,26.8015,-97.4706,1.194,1111122 
TCOON,ioos:station:TCOON:003:1,2014-02-02T16:06:00Z,26.8015,-97.4706,1.18,1111122 
TCOON,ioos:station:TCOON:003:1,2014-02-02T17:06:00Z,26.8015,-97.4706,1.154,1111122 
TCOON,ioos:station:TCOON:003:1,2014-02-02T17:36:00Z,26.8015,-97.4706,1.145,1111122 
TCOON,ioos:station:TCOON:003:1,2014-02-02T18:06:00Z,26.8015,-97.4706,1.138,1111122 
TCOON,ioos:station:TCOON:003:1,2014-02-02T18:36:00Z,26.8015,-97.4706,1.136,1111122 
TCOON,ioos:station:TCOON:003:1,2014-02-02T19:06:00Z,26.8015,-97.4706,1.142,1111122 
TCOON,ioos:station:TCOON:003:1,2014-02-02T19:36:00Z,26.8015,-97.4706,1.156,1111122 
TCOON,ioos:station:TCOON:003:1,2014-02-02T20:06:00Z,26.8015,-97.4706,1.152,1111122 
TCOON,ioos:station:TCOON:003:1,2014-02-02T20:36:00Z,26.8015,-97.4706,1.148,1111122 
TCOON,ioos:station:TCOON:003:1,2014-02-02T21:24:00Z,26.8015,-97.4706,1.041,1111122 
TCOON,ioos:station:TCOON:003:1,2014-02-02T22:00:00Z,26.8015,-97.4706,0.958,1111122 
TCOON,ioos:station:TCOON:003:1,2014-02-02T22:36:00Z,26.8015,-97.4706,0.902,1111122 
TCOON,ioos:station:TCOON:003:1,2014-02-02T23:06:00Z,26.8015,-97.4706,0.863,1111122 
TCOON,ioos:station:TCOON:003:1,2014-02-02T23:36:00Z,26.8015,-97.4706,0.821,1111122 
TCOON,ioos:station:TCOON:003:1,2014-02-03T00:06:00Z,26.8015,-97.4706,0.798,1111122 
TCOON,ioos:station:TCOON:003:1,2014-02-03T00:36:00Z,26.8015,-97.4706,0.788,1111122 
TCOON,ioos:station:TCOON:003:1,2014-02-03T01:06:00Z,26.8015,-97.4706,0.783,1111122 
TCOON,ioos:station:TCOON:003:1,2014-02-03T01:36:00Z,26.8015,-97.4706,0.787,1111122 
TCOON,ioos:station:TCOON:003:1,2014-02-03T02:06:00Z,26.8015,-97.4706,0.797,1111122 
TCOON,ioos:station:TCOON:003:1,2014-02-03T02:36:00Z,26.8015,-97.4706,0.819,1111122 
TCOON,ioos:station:TCOON:003:1,2014-02-03T03:06:00Z,26.8015,-97.4706,0.842,1111122 
TCOON,ioos:station:TCOON:003:1,2014-02-03T04:36:00Z,26.8015,-97.4706,0.862,1111122 
TCOON,ioos:station:TCOON:003:1,2014-02-03T05:06:00Z,26.8015,-97.4706,0.858,1111122 
TCOON,ioos:station:TCOON:003:1,2014-02-03T06:06:00Z,26.8015,-97.4706,0.846,1111122 
TCOON,ioos:station:TCOON:003:1,2014-02-03T06:36:00Z,26.8015,-97.4706,0.843,1111122 
TCOON,ioos:station:TCOON:003:1,2014-02-03T07:06:00Z,26.8015,-97.4706,0.84,1111122 
TCOON,ioos:station:TCOON:003:1,2014-02-03T07:36:00Z,26.8015,-97.4706,0.839,1111122 
TCOON,ioos:station:TCOON:003:1,2014-02-03T08:06:00Z,26.8015,-97.4706,0.855,1111122 
TCOON,ioos:station:TCOON:003:1,2014-02-03T08:36:00Z,26.8015,-97.4706,0.857,1111122 
TCOON,ioos:station:TCOON:003:1,2014-02-03T09:06:00Z,26.8015,-97.4706,0.852,1111122 
TCOON,ioos:station:TCOON:003:1,2014-02-03T10:00:00Z,26.8015,-97.4706,0.832,1111122 
TCOON,ioos:station:TCOON:003:1,2014-02-03T10:36:00Z,26.8015,-97.4706,0.824,1111122 
TCOON,ioos:station:TCOON:003:1,2014-02-03T11:06:00Z,26.8015,-97.4706,0.823,1111122 
TCOON,ioos:station:TCOON:003:1,2014-02-03T11:36:00Z,26.8015,-97.4706,0.83,1111122 
TCOON,ioos:station:TCOON:003:1,2014-02-03T12:24:00Z,26.8015,-97.4706,0.843,1111122 
TCOON,ioos:station:TCOON:003:1,2014-02-03T13:06:00Z,26.8015,-97.4706,0.864,1111122 
TCOON,ioos:station:TCOON:003:1,2014-02-03T13:36:00Z,26.8015,-97.4706,0.876,1111122 
TCOON,ioos:station:TCOON:003:1,2014-02-03T14:06:00Z,26.8015,-97.4706,0.891,1111122 
TCOON,ioos:station:TCOON:003:1,2014-02-03T14:36:00Z,26.8015,-97.4706,0.909,1111122 
TCOON,ioos:station:TCOON:003:1,2014-02-03T15:06:00Z,26.8015,-97.4706,0.921,1111122 
TCOON,ioos:station:TCOON:003:1,2014-02-03T15:36:00Z,26.8015,-97.4706,0.927,1111122 
TCOON,ioos:station:TCOON:003:1,2014-02-03T17:06:00Z,26.8015,-97.4706,0.917,1111122 
TCOON,ioos:station:TCOON:003:1,2014-02-03T17:36:00Z,26.8015,-97.4706,0.923,1111122 
TCOON,ioos:station:TCOON:003:1,2014-02-03T18:36:00Z,26.8015,-97.4706,0.943,1111122 
TCOON,ioos:station:TCOON:003:1,2014-02-03T19:06:00Z,26.8015,-97.4706,0.944,1111122 
TCOON,ioos:station:TCOON:003:1,2014-02-03T19:36:00Z,26.8015,-97.4706,0.944,1111122 
TCOON,ioos:station:TCOON:003:1,2014-02-03T20:06:00Z,26.8015,-97.4706,0.94,1111122 
TCOON,ioos:station:TCOON:003:1,2014-02-03T20:36:00Z,26.8015,-97.4706,0.934,1111122 
TCOON,ioos:station:TCOON:003:1,2014-02-03T21:06:00Z,26.8015,-97.4706,0.932,1111122 
TCOON,ioos:station:TCOON:003:1,2014-02-03T21:36:00Z,26.8015,-97.4706,0.93,1111122 
TCOON,ioos:station:TCOON:003:1,2014-02-03T22:06:00Z,26.8015,-97.4706,0.926,1111122 
TCOON,ioos:station:TCOON:003:1,2014-02-03T22:48:00Z,26.8015,-97.4706,0.917,1111122 
TCOON,ioos:station:TCOON:003:1,2014-02-04T00:18:00Z,26.8015,-97.4706,0.882,1111122 
TCOON,ioos:station:TCOON:003:1,2014-02-04T01:06:00Z,26.8015,-97.4706,0.86,1111122 
TCOON,ioos:station:TCOON:003:1,2014-02-04T01:36:00Z,26.8015,-97.4706,0.85,1111122 
TCOON,ioos:station:TCOON:003:1,2014-02-04T02:06:00Z,26.8015,-97.4706,0.847,1111122 
TCOON,ioos:station:TCOON:003:1,2014-02-04T02:36:00Z,26.8015,-97.4706,0.847,1111122 
TCOON,ioos:station:TCOON:003:1,2014-02-04T03:06:00Z,26.8015,-97.4706,0.847,1111122 
TCOON,ioos:station:TCOON:003:1,2014-02-04T03:36:00Z,26.8015,-97.4706,0.851,1111122 
TCOON,ioos:station:TCOON:003:1,2014-02-04T04:06:00Z,26.8015,-97.4706,0.855,1111122 
TCOON,ioos:station:TCOON:003:1,2014-02-04T05:24:00Z,26.8015,-97.4706,0.86,1111122 
TCOON,ioos:station:TCOON:003:1,2014-02-04T05:36:00Z,26.8015,-97.4706,0.865,1111122 
TCOON,ioos:station:TCOON:003:1,2014-02-04T06:24:00Z,26.8015,-97.4706,0.878,1111122 
TCOON,ioos:station:TCOON:003:1,2014-02-04T06:36:00Z,26.8015,-97.4706,0.882,1111122 
TCOON,ioos:station:TCOON:003:1,2014-02-04T07:06:00Z,26.8015,-97.4706,0.892,1111122 
TCOON,ioos:station:TCOON:003:1,2014-02-14T14:30:00Z,26.8015,-97.4706,1.051,1111122 
TCOON,ioos:station:TCOON:003:1,2014-02-14T15:00:00Z,26.8015,-97.4706,1.053,1111122 
TCOON,ioos:station:TCOON:003:1,2014-02-14T15:30:00Z,26.8015,-97.4706,1.06,1111122 
TCOON,ioos:station:TCOON:003:1,2014-02-14T16:00:00Z,26.8015,-97.4706,1.076,1111122 
TCOON,ioos:station:TCOON:003:1,2014-02-14T16:30:00Z,26.8015,-97.4706,1.09,1111122 
TCOON,ioos:station:TCOON:003:1,2014-02-14T17:00:00Z,26.8015,-97.4706,1.108,1111122 
TCOON,ioos:station:TCOON:003:1,2014-02-14T17:30:00Z,26.8015,-97.4706,1.114,1111122 
TCOON,ioos:station:TCOON:003:1,2014-02-14T18:00:00Z,26.8015,-97.4706,1.107,1111122 
TCOON,ioos:station:TCOON:003:1,2014-02-14T18:30:00Z,26.8015,-97.4706,1.101,1111122 
TCOON,ioos:station:TCOON:003:1,2014-02-14T19:00:00Z,26.8015,-97.4706,1.088,1111122 
TCOON,ioos:station:TCOON:003:1,2014-02-14T19:30:00Z,26.8015,-97.4706,1.078,1111122 
TCOON,ioos:station:TCOON:003:1,2014-02-14T20:00:00Z,26.8015,-97.4706,1.067,1111122 
TCOON,ioos:station:TCOON:003:1,2014-02-14T20:30:00Z,26.8015,-97.4706,1.061,1111122 
TCOON,ioos:station:TCOON:003:1,2014-02-14T21:00:00Z,26.8015,-97.4706,1.059,1111122 
TCOON,ioos:station:TCOON:003:1,2014-02-14T21:30:00Z,26.8015,-97.4706,1.05,1111122 
TCOON,ioos:station:TCOON:003:1,2014-02-14T22:00:00Z,26.8015,-97.4706,1.046,1111122 
TCOON,ioos:station:TCOON:003:1,2014-02-14T22:30:00Z,26.8015,-97.4706,1.042,1111122 
TCOON,ioos:station:TCOON:003:1,2014-02-14T23:00:00Z,26.8015,-97.4706,1.036,1111122 
TCOON,ioos:station:TCOON:003:1,2014-02-14T23:36:00Z,26.8015,-97.4706,1.034,1111122 
TCOON,ioos:station:TCOON:003:1,2014-02-15T00:00:00Z,26.8015,-97.4706,1.038,1111122 
TCOON,ioos:station:TCOON:003:1,2014-02-15T00:30:00Z,26.8015,-97.4706,1.042,1111122 
TCOON,ioos:station:TCOON:003:1,2014-02-15T01:00:00Z,26.8015,-97.4706,1.048,1111122 
TCOON,ioos:station:TCOON:003:1,2014-02-15T01:30:00Z,26.8015,-97.4706,1.053,1111122 
TCOON,ioos:station:TCOON:003:1,2014-02-15T02:00:00Z,26.8015,-97.4706,1.055,1111122 
TCOON,ioos:station:TCOON:003:1,2014-02-15T02:30:00Z,26.8015,-97.4706,1.057,1111122 
TCOON,ioos:station:TCOON:003:1,2014-02-15T03:00:00Z,26.8015,-97.4706,1.056,1111122 
TCOON,ioos:station:TCOON:003:1,2014-02-15T03:30:00Z,26.8015,-97.4706,1.057,1111122 
TCOON,ioos:station:TCOON:003:1,2014-02-15T04:00:00Z,26.8015,-97.4706,1.056,1111122 
TCOON,ioos:station:TCOON:003:1,2014-02-15T04:30:00Z,26.8015,-97.4706,1.051,1111122 
TCOON,ioos:station:TCOON:003:1,2014-02-15T05:00:00Z,26.8015,-97.4706,1.044,1111122 
TCOON,ioos:station:TCOON:003:1,2014-02-15T05:30:00Z,26.8015,-97.4706,1.034,1111122 
TCOON,ioos:station:TCOON:003:1,2014-02-15T06:00:00Z,26.8015,-97.4706,1.026,1111122 
TCOON,ioos:station:TCOON:003:1,2014-02-15T06:30:00Z,26.8015,-97.4706,1.023,1111122 
TCOON,ioos:station:TCOON:003:1,2014-02-15T07:00:00Z,26.8015,-97.4706,1.02,1111122 
TCOON,ioos:station:TCOON:003:1,2014-02-15T07:30:00Z,26.8015,-97.4706,1.02,1111122 
TCOON,ioos:station:TCOON:003:1,2014-02-15T08:00:00Z,26.8015,-97.4706,1.021,1111122 
TCOON,ioos:station:TCOON:003:1,2014-02-15T08:30:00Z,26.8015,-97.4706,1.022,1111122 
TCOON,ioos:station:TCOON:003:1,2014-02-15T09:00:00Z,26.8015,-97.4706,1.025,1111122 
TCOON,ioos:station:TCOON:003:1,2014-02-15T09:30:00Z,26.8015,-97.4706,1.024,1111122 
TCOON,ioos:station:TCOON:003:1,2014-02-15T14:00:00Z,26.8015,-97.4706,1.021,1111122 
TCOON,ioos:station:TCOON:003:1,2014-02-15T14:30:00Z,26.8015,-97.4706,1.019,1111122 
TCOON,ioos:station:TCOON:003:1,2014-02-15T15:00:00Z,26.8015,-97.4706,1.013,1111122 
TCOON,ioos:station:TCOON:003:1,2014-02-15T15:30:00Z,26.8015,-97.4706,1.013,1111122 
TCOON,ioos:station:TCOON:003:1,2014-02-15T16:00:00Z,26.8015,-97.4706,1.015,1111122 
TCOON,ioos:station:TCOON:003:1,2014-02-15T16:30:00Z,26.8015,-97.4706,1.011,1111122 
TCOON,ioos:station:TCOON:003:1,2014-02-15T17:00:00Z,26.8015,-97.4706,1.006,1111122 
TCOON,ioos:station:TCOON:003:1,2014-02-15T17:30:00Z,26.8015,-97.4706,1.014,1111122 
TCOON,ioos:station:TCOON:003:1,2014-02-15T18:00:00Z,26.8015,-97.4706,1.017,1111122 
TCOON,ioos:station:TCOON:003:1,2014-02-15T18:30:00Z,26.8015,-97.4706,1.025,1111122 
TCOON,ioos:station:TCOON:003:1,2014-02-15T19:00:00Z,26.8015,-97.4706,1.032,1111122 
TCOON,ioos:station:TCOON:003:1,2014-02-15T19:30:00Z,26.8015,-97.4706,1.031,1111122 
TCOON,ioos:station:TCOON:003:1,2014-02-15T20:06:00Z,26.8015,-97.4706,1.032,1111122 
TCOON,ioos:station:TCOON:003:1,2014-02-15T20:48:00Z,26.8015,-97.4706,1.032,1111122 
TCOON,ioos:station:TCOON:003:1,2014-02-15T21:36:00Z,26.8015,-97.4706,1.038,1111122 
TCOON,ioos:station:TCOON:003:1,2014-02-15T22:00:00Z,26.8015,-97.4706,1.042,1111122 
TCOON,ioos:station:TCOON:003:1,2014-02-15T22:30:00Z,26.8015,-97.4706,1.05,1111122 
TCOON,ioos:station:TCOON:003:1,2014-02-15T23:00:00Z,26.8015,-97.4706,1.053,1111122 
TCOON,ioos:station:TCOON:003:1,2014-02-15T23:30:00Z,26.8015,-97.4706,1.077,1111122 
TCOON,ioos:station:TCOON:003:1,2014-02-16T00:00:00Z,26.8015,-97.4706,1.098,1111122 
TCOON,ioos:station:TCOON:003:1,2014-02-16T00:30:00Z,26.8015,-97.4706,1.094,1111122 
TCOON,ioos:station:TCOON:003:1,2014-02-16T01:00:00Z,26.8015,-97.4706,1.103,1111122 
TCOON,ioos:station:TCOON:003:1,2014-02-16T01:30:00Z,26.8015,-97.4706,1.106,1111122 
TCOON,ioos:station:TCOON:003:1,2014-02-16T02:00:00Z,26.8015,-97.4706,1.106,1111122 
TCOON,ioos:station:TCOON:003:1,2014-02-16T02:30:00Z,26.8015,-97.4706,1.105,1111122 
TCOON,ioos:station:TCOON:003:1,2014-02-16T03:00:00Z,26.8015,-97.4706,1.1,1111122 
TCOON,ioos:station:TCOON:003:1,2014-02-16T03:30:00Z,26.8015,-97.4706,1.089,1111122 
TCOON,ioos:station:TCOON:003:1,2014-02-16T04:00:00Z,26.8015,-97.4706,1.075,1111122 
TCOON,ioos:station:TCOON:003:1,2014-02-16T04:30:00Z,26.8015,-97.4706,1.061,1111122 
TCOON,ioos:station:TCOON:003:1,2014-02-16T05:00:00Z,26.8015,-97.4706,1.051,1111122 
TCOON,ioos:station:TCOON:003:1,2014-02-16T05:48:00Z,26.8015,-97.4706,1.042,1111122 
TCOON,ioos:station:TCOON:003:1,2014-02-16T06:00:00Z,26.8015,-97.4706,1.041,1111122 
TCOON,ioos:station:TCOON:003:1,2014-02-16T06:30:00Z,26.8015,-97.4706,1.044,1111122 
TCOON,ioos:station:TCOON:003:1,2014-02-16T07:00:00Z,26.8015,-97.4706,1.046,1111122 
TCOON,ioos:station:TCOON:003:1,2014-02-16T07:30:00Z,26.8015,-97.4706,1.052,1111122 
TCOON,ioos:station:TCOON:003:1,2014-02-16T08:00:00Z,26.8015,-97.4706,1.061,1111122 
TCOON,ioos:station:TCOON:003:1,2014-02-16T08:30:00Z,26.8015,-97.4706,1.067,1111122 
TCOON,ioos:station:TCOON:003:1,2014-02-16T09:00:00Z,26.8015,-97.4706,1.07,1111122 
TCOON,ioos:station:TCOON:003:1,2014-02-16T09:30:00Z,26.8015,-97.4706,1.07,1111122 
TCOON,ioos:station:TCOON:003:1,2014-02-16T10:00:00Z,26.8015,-97.4706,1.066,1111122 
TCOON,ioos:station:TCOON:003:1,2014-02-16T11:00:00Z,26.8015,-97.4706,1.051,1111122 
TCOON,ioos:station:TCOON:003:1,2014-02-16T11:30:00Z,26.8015,-97.4706,1.041,1111122 
TCOON,ioos:station:TCOON:003:1,2014-02-16T12:00:00Z,26.8015,-97.4706,1.038,1111122 
TCOON,ioos:station:TCOON:003:1,2014-02-16T12:30:00Z,26.8015,-97.4706,1.038,1111122 
TCOON,ioos:station:TCOON:003:1,2014-02-16T13:00:00Z,26.8015,-97.4706,1.038,1111122 
TCOON,ioos:station:TCOON:003:1,2014-02-16T13:30:00Z,26.8015,-97.4706,1.037,1111122 
TCOON,ioos:station:TCOON:003:1,2014-02-16T14:00:00Z,26.8015,-97.4706,1.039,1111122 
TCOON,ioos:station:TCOON:003:1,2014-02-16T14:30:00Z,26.8015,-97.4706,1.042,1111122 
TCOON,ioos:station:TCOON:003:1,2014-02-16T15:00:00Z,26.8015,-97.4706,1.046,1111122 
TCOON,ioos:station:TCOON:003:1,2014-02-16T15:30:00Z,26.8015,-97.4706,1.05,1111122 
TCOON,ioos:station:TCOON:003:1,2014-02-16T16:00:00Z,26.8015,-97.4706,1.053,1111122 
TCOON,ioos:station:TCOON:003:1,2014-02-16T16:30:00Z,26.8015,-97.4706,1.052,1111122 
TCOON,ioos:station:TCOON:003:1,2014-02-16T17:00:00Z,26.8015,-97.4706,1.05,1111122 
TCOON,ioos:station:TCOON:003:1,2014-02-16T17:30:00Z,26.8015,-97.4706,1.043,1111122 
TCOON,ioos:station:TCOON:003:1,2014-02-16T18:00:00Z,26.8015,-97.4706,1.035,1111122 
TCOON,ioos:station:TCOON:003:1,2014-02-16T18:30:00Z,26.8015,-97.4706,1.032,1111122 
TCOON,ioos:station:TCOON:003:1,2014-02-16T19:00:00Z,26.8015,-97.4706,1.032,1111122 
TCOON,ioos:station:TCOON:003:1,2014-02-16T19:30:00Z,26.8015,-97.4706,1.029,1111122 
TCOON,ioos:station:TCOON:003:1,2014-02-16T20:00:00Z,26.8015,-97.4706,1.038,1111122 
TCOON,ioos:station:TCOON:003:1,2014-02-16T20:36:00Z,26.8015,-97.4706,1.073,1111122 
TCOON,ioos:station:TCOON:003:1,2014-02-16T21:06:00Z,26.8015,-97.4706,1.106,1111122 
TCOON,ioos:station:TCOON:003:1,2014-02-16T21:36:00Z,26.8015,-97.4706,1.122,1111122 
TCOON,ioos:station:TCOON:003:1,2014-02-16T22:00:00Z,26.8015,-97.4706,1.135,1111122 
TCOON,ioos:station:TCOON:003:1,2014-02-16T22:36:00Z,26.8015,-97.4706,1.148,1111122 
TCOON,ioos:station:TCOON:003:1,2014-02-16T23:06:00Z,26.8015,-97.4706,1.163,1111122 
TCOON,ioos:station:TCOON:003:1,2014-02-16T23:36:00Z,26.8015,-97.4706,1.182,1111122 
TCOON,ioos:station:TCOON:003:1,2014-02-17T00:06:00Z,26.8015,-97.4706,1.186,1111122 
TCOON,ioos:station:TCOON:003:1,2014-02-17T00:36:00Z,26.8015,-97.4706,1.189,1111122 
TCOON,ioos:station:TCOON:003:1,2014-02-17T01:06:00Z,26.8015,-97.4706,1.187,1111122 
TCOON,ioos:station:TCOON:003:1,2014-02-17T01:36:00Z,26.8015,-97.4706,1.182,1111122 
TCOON,ioos:station:TCOON:003:1,2014-02-17T02:06:00Z,26.8015,-97.4706,1.174,1111122 
TCOON,ioos:station:TCOON:003:1,2014-02-17T02:36:00Z,26.8015,-97.4706,1.165,1111122 
TCOON,ioos:station:TCOON:003:1,2014-02-17T03:06:00Z,26.8015,-97.4706,1.156,1111122 
TCOON,ioos:station:TCOON:003:1,2014-02-17T03:36:00Z,26.8015,-97.4706,1.148,1111122 
TCOON,ioos:station:TCOON:003:1,2014-02-17T04:06:00Z,26.8015,-97.4706,1.14,1111122 
TCOON,ioos:station:TCOON:003:1,2014-02-17T04:36:00Z,26.8015,-97.4706,1.134,1111122 
TCOON,ioos:station:TCOON:003:1,2014-02-17T05:06:00Z,26.8015,-97.4706,1.129,1111122 
TCOON,ioos:station:TCOON:003:1,2014-02-17T05:36:00Z,26.8015,-97.4706,1.127,1111122 
TCOON,ioos:station:TCOON:003:1,2014-02-17T06:06:00Z,26.8015,-97.4706,1.127,1111122 
TCOON,ioos:station:TCOON:003:1,2014-02-17T06:36:00Z,26.8015,-97.4706,1.128,1111122 
TCOON,ioos:station:TCOON:003:1,2014-02-17T07:06:00Z,26.8015,-97.4706,1.139,1111122 
TCOON,ioos:station:TCOON:003:1,2014-02-17T07:36:00Z,26.8015,-97.4706,1.141,1111122 
TCOON,ioos:station:TCOON:003:1,2014-02-17T08:06:00Z,26.8015,-97.4706,1.147,1111122 
TCOON,ioos:station:TCOON:003:1,2014-02-17T08:36:00Z,26.8015,-97.4706,1.148,1111122 
TCOON,ioos:station:TCOON:003:1,2014-02-17T09:06:00Z,26.8015,-97.4706,1.145,1111122 
TCOON,ioos:station:TCOON:003:1,2014-02-17T09:36:00Z,26.8015,-97.4706,1.144,1111122 
TCOON,ioos:station:TCOON:003:1,2014-02-17T10:06:00Z,26.8015,-97.4706,1.144,1111122 
TCOON,ioos:station:TCOON:003:1,2014-02-17T10:30:00Z,26.8015,-97.4706,1.137,1111122 
TCOON,ioos:station:TCOON:003:1,2014-02-17T11:06:00Z,26.8015,-97.4706,1.123,1111122 
TCOON,ioos:station:TCOON:003:1,2014-02-17T11:36:00Z,26.8015,-97.4706,1.112,1111122 
TCOON,ioos:station:TCOON:003:1,2014-02-17T12:06:00Z,26.8015,-97.4706,1.109,1111122 
TCOON,ioos:station:TCOON:003:1,2014-02-17T12:36:00Z,26.8015,-97.4706,1.106,1111122 
TCOON,ioos:station:TCOON:003:1,2014-02-17T13:06:00Z,26.8015,-97.4706,1.102,1111122 
TCOON,ioos:station:TCOON:003:1,2014-02-17T13:36:00Z,26.8015,-97.4706,1.1,1111122 
TCOON,ioos:station:TCOON:003:1,2014-02-17T14:06:00Z,26.8015,-97.4706,1.099,1111122 
TCOON,ioos:station:TCOON:003:1,2014-02-17T14:30:00Z,26.8015,-97.4706,1.099,1111122 
TCOON,ioos:station:TCOON:003:1,2014-02-17T15:06:00Z,26.8015,-97.4706,1.107,1111122 
TCOON,ioos:station:TCOON:003:1,2014-02-17T15:36:00Z,26.8015,-97.4706,1.121,1111122 
TCOON,ioos:station:TCOON:003:1,2014-02-17T16:06:00Z,26.8015,-97.4706,1.121,1111122 
TCOON,ioos:station:TCOON:003:1,2014-02-17T16:36:00Z,26.8015,-97.4706,1.115,1111122 
TCOON,ioos:station:TCOON:003:1,2014-02-17T17:06:00Z,26.8015,-97.4706,1.113,1111122 
TCOON,ioos:station:TCOON:003:1,2014-02-17T17:36:00Z,26.8015,-97.4706,1.119,1111122 